Regional Weather Roundup
Issued by NWS

Home | Current Version | Previous Version | Graphics & Text | Print | Product List | Glossary On
Versions: 1 2 3 4 5 6 7 8 9 10 11 12 13 14 15 16 17 18 19 20 21 22 23 24 25 26 27 28
000
ASUS45 KTFX 261110
RWRMT
MONTANA REGIONAL WEATHER ROUNDUP
NATIONAL WEATHER SERVICE GREAT FALLS MT
500 AM MDT WED APR 26 2017

NOTE: "FAIR" INDICATES FEW OR NO CLOUDS BELOW 12000 FEET WITH NO
SIGNIFICANT WEATHER AND/OR OBSTRUCTIONS TO VISIBILITY.

MTZ001>007-043-261200-
WEST OF THE DIVIDE

CITY           SKY/WX    TMP DP  RH WIND       PRES   REMARKS
KALISPELL      MOCLDY    38  38 100 W3        29.74F
MISSOULA       LGT RAIN  42  39  89 NE3       29.77F
BUTTE          PTCLDY    35  30  82 CALM      29.76S
MULLAN PASS    SNOW      30  30 100 CALM      29.70F VSB 1/2
ANACONDA         N/A     36  32  87 CALM      29.76S
DEER LODGE       N/A     36  32  87 W3        29.78F
EUREKA           N/A     39  37  93 SE8       29.73S
HAMILTON         N/A     39  37  93 CALM      29.77F
PLAINS           N/A     40  35  82 MISG      29.77F
$$

MTZ008-052>055-261200-
SOUTHWEST MONTANA

CITY           SKY/WX    TMP DP  RH WIND       PRES   REMARKS
BOZEMAN        CLOUDY    40  38  93 CALM      29.77S
DILLON         CLEAR     37  30  75 S8        29.76S WCI  31
W YELLOWSTONE  CLOUDY    32  27  80 SW15G21   29.79S WCI  22
THREE FORKS      N/A     40  40 100 CALM      29.79S
TWIN BRIDGES     N/A     38  32  79 E5        29.79S
$$

MTZ009-010-012-014-046-048-049-054-261200-
EAST SLOPES AND CENTRAL MONTANA

CITY           SKY/WX    TMP DP  RH WIND       PRES   REMARKS
CUT BANK       CLOUDY    33  33 100 E7        29.73S FOG     WCI  27
GREAT FALLS    CLEAR     33  31  92 E7        29.75F WCI  27
MALMSTROM AFB  CLEAR     30  30 100 S7        29.76F WCI  23
HELENA         CLOUDY    37  34  89 SE7       29.76S WCI  32
AUGUSTA        FOG       31  32 100 CALM      29.72F VSB 1/2
BOWMANS CRNR   MOCLDY    31  31 100 S12       29.71F FOG     WCI  21
CHOTEAU          N/A     34  34 100 S6        29.74F WCI  29
FAIRFIELD        N/A     33  31  94 E3        29.73F
POWER            N/A     33  32  98 SE7       29.73F WCI  26
RAYNESFORD       N/A     31  30  95 E9        29.76F WCI  23
ULM              N/A     33  32  96 SE8       29.75F WCI  26
$$

MTZ011-013-016-021-045-047-050-051-261200-
NORTH CENTRAL MONTANA

CITY           SKY/WX    TMP DP  RH WIND       PRES   REMARKS
HAVRE          CLOUDY    38  37  97 E5        29.79S
LEWISTOWN      CLEAR     30  29  96 E6        29.77S WCI  24
N BAR RANCH    CLOUDY    32  30  93 CALM      29.80F
CHINOOK          N/A     37  34  87 E9        29.81F WCI  31
DENTON         CLOUDY    35  35  99 MISG      29.75S FOG
FORT BENTON      N/A     37  36  93 MISG      29.79F
GEYSER         FOG       32  32  99 NW3       29.76F VSB 3/8
GRASS RANGE    FOG       30  30 100 SW5       29.76S VSB 5/8
JUDITH GAP     CLOUDY    31  31  96 S10       29.76F WCI  23
STANFORD       FOG       29  29  99 NW3       29.76S VSB 5/8
WINIFRED       CLOUDY    32 N/A N/A E5        29.77F
$$

MTZ017>020-022>027-061-062-261200-
NORTHEAST MONTANA

CITY           SKY/WX    TMP DP  RH WIND       PRES   REMARKS
GLASGOW        CLOUDY    34  24  67 SE9       29.89S WCI  27
JORDAN           N/A     31  25  78 S10       29.87S WCI  22
SIDNEY         CLEAR     25  22  88 NE6       29.94F WCI  18
WOLF POINT     CLOUDY    34  26  72 E6        29.93F WCI  29
PLENTYWOOD       N/A     27  21  80 E8        29.94F WCI  18
POPLAR           N/A     34  27  75 E9        29.93F WCI  26
$$

MTZ028>42-056>058-261200-
SOUTHCENTRAL AND SOUTHEAST MONTANA

CITY           SKY/WX    TMP DP  RH WIND       PRES   REMARKS
BAKER          CLOUDY    30  24  78 CALM      29.88F
BILLINGS       CLOUDY    34  29  82 SE5       29.82F
LIVINGSTON     MIX PCPN  35  34  96 CALM      29.76F
MILES CITY     CLOUDY    35  25  66 S3        29.88F
BIG TIMBER     FOG       32  32 100 SE6       29.80F VSB 1/4 WCI  26
EKALAKA          N/A     27  19  71 W1        29.85F
LAUREL           N/A     33  23  67 CALM      29.81F
ROUNDUP          N/A     35  26  70 SE3       29.75S
$$

REGIONAL REPORTS...DAKOTAS

CITY           SKY/WX    TMP DP  RH WIND       PRES   REMARKS
WILLISTON      CLEAR     24  19  81 N6        29.96F WCI  17
MINOT          PTCLDY    27  20  75 NW9       29.93F WCI  18
DICKINSON      CLOUDY    30  23  75 N6        29.87F WCI  24
BEACH          CLOUDY    30  28  93 N5        29.92F
TIOGA            N/A     21  21 100 CALM      29.96S
WATFORD CITY     N/A     23  21  93 CALM      29.94S
BISMARCK       CLOUDY    32  23  69 N13       29.88R WCI  22
GRAND FORKS    CLOUDY    32  25  75 N21       29.83F WCI  20
FARGO          LGT SNOW  30  28  92 N20       29.74F FOG     WCI  17
BUFFALO SD       N/A     31  25  78 NW10      29.80S WCI  22
RAPID CITY     CLOUDY    28  23  81 NW20      29.85S WCI  15
$$

REGIONAL REPORTS...WYOMING/IDAHO/WASHINGTON

CITY           SKY/WX    TMP DP  RH WIND       PRES   REMARKS
GILLETTE       CLOUDY    26  26 100 SW8       29.82S WCI  18
SHERIDAN       CLOUDY    30  26  85 E3        29.81S
CODY           LGT RAIN  35  34  96 S8        29.78F WCI  29
YELLOWSTONE LA   N/A     27  24  89 VRB3      29.82S
IDAHO FALLS    CLOUDY    39  33  79 SW14      29.83S WCI  31
SALMON         CLOUDY    37  34  87 CALM      29.79S
BOISE          CLOUDY    47  40  76 E7        29.87R
SPOKANE        LGT RAIN  43  40  89 S3        29.74F
$$

REGIONAL REPORTS...ALBERTA

CITY           SKY/WX    TMP DP  RH WIND       PRES   REMARKS
EDMONTON       CLOUDY    30  27  86 SE10      29.82F WCI  21
CALGARY        CLOUDY    28  25  86 S5        29.74S
LETHBRIDGE     LGT SNOW  30  30 100 NE2       29.76F
MEDICINE HAT   CLOUDY    37  34  87 S10       29.78S WCI  30
WATERTON GATE    N/A     30  30 100 E2          N/A
CARDSTON         N/A     32  30  93 E1          N/A
MILK RIVER       N/A     32  32 100 NE3         N/A
$$

REGIONAL REPORTS...SASKATCHEWAN

CITY           SKY/WX    TMP DP  RH WIND       PRES   REMARKS
SWIFT CURRENT  CLOUDY    30  28  93 SE12      29.84F WCI  21
REGINA         PTCLDY    27  16  63 E15       29.99F WCI  15
SASKATOON      FLURRIES  28  27  93 E8        29.99F WCI  20
CYPRESS HILLS    N/A     28  27  93 SE9         N/A  WCI  20
VAL MARIE        N/A     32  28  86 SE14        N/A  WCI  22
ROCKGLEN         N/A     30  25  80 SE8         N/A  WCI  23
ASSINIBOIA       N/A     30  28  93 SE8         N/A  WCI  23
$$




USA.gov is the U.S. government's official web portal to all federal, state and local government web resources and services.